TimeCDT,TemperatureF,Dew PointF,Humidity,Sea Level PressureIn,VisibilityMPH,Wind Direction,Wind SpeedMPH,Gust SpeedMPH,PrecipitationIn,Events,Conditions,WindDirDegrees,DateUTC
12:53 AM,57.0,39.0,51,29.92,10.0,SSE,10.4,-,N/A,,Clear,160,2013-03-10 06:53:00
1:53 AM,59.0,39.9,49,29.90,10.0,South,13.8,-,N/A,,Clear,170,2013-03-10 07:53:00
3:53 AM,60.1,42.1,51,29.88,10.0,South,15.0,-,N/A,,Clear,170,2013-03-10 08:53:00
4:53 AM,60.1,44.1,55,29.85,10.0,South,19.6,-,N/A,,Clear,170,2013-03-10 09:53:00
5:53 AM,59.0,45.0,60,29.86,10.0,SSE,15.0,24.2,N/A,,Partly Cloudy,160,2013-03-10 10:53:00
7:53 AM,57.9,48.0,70,29.84,10.0,SSE,16.1,21.9,N/A,,Clear,160,2013-03-10 12:53:00
8:53 AM,59.0,46.9,64,29.82,10.0,SSE,18.4,26.5,N/A,,Clear,150,2013-03-10 13:53:00
9:53 AM,61.0,48.9,64,29.83,10.0,SSE,23.0,32.2,N/A,,Clear,160,2013-03-10 14:53:00
10:53 AM,63.0,50.0,63,29.79,10.0,SSE,23.0,32.2,N/A,,Clear,160,2013-03-10 15:53:00
11:53 AM,64.9,51.1,61,29.78,10.0,South,28.8,36.8,N/A,,Scattered Clouds,170,2013-03-10 16:53:00
12:53 PM,64.9,52.0,63,29.78,10.0,South,25.3,35.7,N/A,,Mostly Cloudy,180,2013-03-10 17:53:00
1:53 PM,62.1,55.9,80,29.75,8.0,SSE,20.7,-,0.04,Rain,Light Rain,160,2013-03-10 18:53:00
2:40 PM,53.6,51.8,94,29.78,1.8,NNW,12.7,20.7,0.09,Rain,Heavy Rain,330,2013-03-10 19:40:00
2:44 PM,51.8,51.8,100,29.78,2.0,NW,20.7,-,0.11,Rain,Heavy Rain,310,2013-03-10 19:44:00
2:49 PM,51.8,50.0,94,29.78,3.0,NNW,17.3,23.0,0.12,Rain,Heavy Rain,330,2013-03-10 19:49:00
2:53 PM,52.0,51.1,97,29.78,4.0,NNW,17.3,-,0.13,Rain,Rain,340,2013-03-10 19:53:00
3:13 PM,51.8,50.0,94,29.81,6.0,NW,15.0,-,0.02,Rain,Rain,320,2013-03-10 20:13:00
3:41 PM,51.8,51.8,100,29.79,10.0,NNW,13.8,-,0.04,Rain,Light Rain,330,2013-03-10 20:41:00
3:53 PM,52.0,50.0,93,29.81,10.0,NNW,12.7,-,0.05,Rain,Light Rain,330,2013-03-10 20:53:00
4:13 PM,51.8,50.0,94,29.83,2.5,NW,9.2,-,0.03,Rain,Heavy Rain,320,2013-03-10 21:13:00
4:31 PM,51.8,51.8,100,29.80,5.0,North,5.8,-,0.18,Rain,Rain,10,2013-03-10 21:31:00
4:53 PM,52.0,50.0,93,29.78,10.0,East,8.1,-,0.20,Rain,Light Rain,100,2013-03-10 21:53:00
5:53 PM,52.0,50.0,93,29.78,9.0,ESE,8.1,-,N/A,Rain,Light Rain,120,2013-03-10 22:53:00
6:09 PM,51.8,51.8,100,29.76,10.0,ESE,8.1,-,N/A,Rain,Light Rain,120,2013-03-10 23:09:00
6:18 PM,51.8,51.8,100,29.77,10.0,ESE,8.1,-,N/A,,Mostly Cloudy,120,2013-03-10 23:18:00
6:45 PM,51.8,50.0,94,29.79,10.0,SE,6.9,-,N/A,,Overcast,140,2013-03-10 23:45:00
6:53 PM,52.0,50.0,93,29.80,10.0,SE,5.8,-,N/A,,Overcast,140,2013-03-10 23:53:00
7:53 PM,52.0,51.1,97,29.81,10.0,SSW,4.6,-,0.02,,Overcast,200,2013-03-11 00:53:00
8:14 PM,51.8,50.0,94,29.80,10.0,South,6.9,-,N/A,,Overcast,190,2013-03-11 01:14:00
8:48 PM,51.8,50.0,94,29.82,10.0,South,6.9,-,N/A,,Overcast,180,2013-03-11 01:48:00
8:53 PM,51.1,50.0,96,29.82,10.0,South,5.8,-,N/A,,Overcast,180,2013-03-11 01:53:00
9:53 PM,52.0,50.0,93,29.81,10.0,South,10.4,-,N/A,,Overcast,190,2013-03-11 02:53:00
9:58 PM,51.8,50.0,94,29.81,10.0,South,10.4,-,N/A,,Overcast,190,2013-03-11 02:58:00
10:36 PM,51.8,50.0,94,29.82,10.0,South,6.9,-,N/A,,Overcast,190,2013-03-11 03:36:00
10:53 PM,51.1,50.0,96,29.81,10.0,South,10.4,-,N/A,,Mostly Cloudy,190,2013-03-11 03:53:00
11:04 PM,51.8,50.0,94,29.82,10.0,SSW,10.4,-,N/A,,Overcast,200,2013-03-11 04:04:00
11:37 PM,51.8,50.0,94,29.82,10.0,WSW,11.5,-,N/A,,Overcast,250,2013-03-11 04:37:00
11:45 PM,51.8,48.2,88,29.82,10.0,West,16.1,21.9,N/A,,Overcast,260,2013-03-11 04:45:00
11:53 PM,51.1,46.0,83,29.81,10.0,WNW,18.4,25.3,N/A,,Overcast,290,2013-03-11 04:53:00
12:01 AM,50.0,42.8,76,29.82,10.0,WNW,13.8,-,N/A,,Overcast,300,2013-03-11 05:01:00
12:53 AM,48.9,44.1,83,29.83,10.0,West,9.2,-,N/A,,Overcast,280,2013-03-11 05:53:00